Погода в Новосаринском

Россия / Оренбургская область     51°29′01″N   57°54′10″E
темп.,
°C
ветер,
м/с
пор.,
м/с
влажн.,
%
обл.,
%
осадки,
мм/ч
давл.,
гПа
погр.,
м
20 сентября, пн
пн2023:00+4сз365713 0.0 1023104
02:00+3сз33615 0.0 102433
05:00+2сз33665 0.0 102537
08:00+3сз24648 0.0 1026134
11:00+9ссз34416 0.0 1025824
14:00+12ссз333074 0.0 10241371
17:00+13с222759 0.0 10231450
20:00+9в223894 0.0 102411
21 сентября, вт
вт2123:00+6в3748100 0.0 1026130
02:00+5в355399 0.0 102785
05:00+4в4857100 0.0 1027200
08:00+5в5954100 0.0 1028317
11:00+8вюв6744100 0.0 1028627
14:00+10вюв5536100 0.0 1026950
17:00+12юв443270 0.0 10251030
20:00+8в474572 0.0 1025162
22 сентября, ср
ср2223:00+7вюв484698 0.0 1025275
02:00+7вюв374591 0.0 1024219
05:00+6ююв2546100 0.0 1024120
08:00+7вюв244599 0.0 1024168
11:00+9ююв3440100 0.0 1024330
14:00+11ю3336100 0.0 1024474
17:00+11юв1238100 0.0 1023114
20:00+10вюв1139100 0.0 102412
23 сентября, чт
чт2323:00+10вюв1139100 0.0 102413
02:00+10вюв1140100 0.0 102413
05:00+10ююв0041100 0.0 102510
08:00+10всв224084 0.0 102630
11:00+14в4432100 0.0 1027721
14:00+17в5530100 0.0 10251277
17:00+16вюв553399 0.0 10251485
20:00+12в41041100 0.0 1027208
24 сентября, пт
пт2423:00+10вюв51241100 0.0 1027346
02:00+9вюв41146100 0.0 1028326
05:00+8юв51153100 0.0 1028443
08:00+7вюв51257100 0.0 1028435
11:00+11юв810418 0.0 1027755
14:00+15юв8103098 0.0 10251120
17:00+16юв8102616 0.0 10231200
20:00+12юв7132884 0.0 1023482